Regional Weather Roundup
Issued by NWS

Home | Current Version | Previous Version | Graphics & Text | Print | Product List | Glossary On
Versions: 1 2 3 4 5 6 7 8 9 10 11 12 13 14 15 16 17 18 19 20 21 22 23 24 25 26 27 28 29 30 31 32 33 34 35 36 37 38 39 40 41 42 43 44 45 46 47 48 49 50
000
ASUS43 KMKX 140511
RWRWI

WISCONSIN REGIONAL WEATHER ROUNDUP
NATIONAL WEATHER SERVICE MILWAUKEE/SULLIVAN WI
1200 AM CDT MON JUL 14 2014

NOTE: "FAIR" INDICATES FEW OR NO CLOUDS BELOW 12,000 FEET WITH NO
SIGNIFICANT WEATHER AND/OR OBSTRUCTIONS TO VISIBILITY.

WIZ001-002-006>008-014>016-023>028-140600-
NORTHWEST WISCONSIN

CITY           SKY/WX    TMP DP  RH WIND       PRES   REMARKS
SUPERIOR ARPT  CLOUDY    57  49  72 W9        29.87S
ASHLAND        MOCLDY    57  50  77 VRB3      29.87S
HAYWARD        CLOUDY    58  52  80 CALM      29.87F
SIREN          CLOUDY    61  51  70 NW3       29.88S
RICE LAKE      CLOUDY    55  53  92 CALM      29.89S
LADYSMITH      MOCLDY    59  52  75 CALM      29.89S
EAU CLAIRE     PTCLDY    58  54  86 SW3       29.87F
MENOMONIE      CLEAR     60  50  69 SW3       29.88F
NEW RICHMOND   CLOUDY    60  50  70 W7        29.89S
OSCEOLA        CLOUDY    62  54  76 W3        29.91S
$$

WIZ003>005-009-010-017-018-140600-
NORTH CENTRAL WISCONSIN

CITY           SKY/WX    TMP DP  RH WIND       PRES   REMARKS
WOODRUFF       CLOUDY    59  49  69 CALM      29.86F
RHINELANDER    CLOUDY    57  51  80 W5        29.87F
EAGLE RIVER    CLOUDY    55  49  79 CALM      29.86S
LAND O LAKES   CLOUDY    55  53  94 CALM      29.86F
PHILLIPS       CLOUDY    59  50  72 CALM      29.87S
TOMAHAWK       MOCLDY    56  50  81 CALM      29.88F
MEDFORD        CLEAR     58  52  81 SW3       29.88F
MERRILL        CLOUDY    55  52  89 CALM      29.88S
$$

WIZ029-030-035-036-043>047-140600-
CENTRAL WISCONSIN

CITY           SKY/WX    TMP DP  RH WIND       PRES   REMARKS
WAUSAU         CLOUDY    62  53  72 CALM      29.87S
MOSINEE        MOCLDY    59  54  82 W6        29.89F
MARSHFIELD     MOCLDY    60  52  74 W6        29.89F
STEVENS POINT  PTCLDY    62  50  66 W3        29.89S
WAUPACA        PTCLDY    58  53  81 CALM      29.88F
WAUTOMA        CLEAR     54  52  93 CALM      29.89F
WISC RAPIDS    CLEAR     57  53  86 CALM      29.90S
CAMP DOUGLAS   MOCLDY    56  56 100 CALM      29.90S
$$

WIZ011>013-019>022-031-037>040-048>050-140600-
NORTHEAST WISCONSIN

CITY           SKY/WX    TMP DP  RH WIND       PRES   REMARKS
ANTIGO         CLEAR     53  50  90 SW5       29.88S
STURGEON BAY   MOCLDY    57  50  77 SW5       29.86F
GREEN BAY      CLEAR     62  51  67 SW3       29.87S
MANITOWOC      CLEAR     60  52  74 CALM      29.88S
APPLETON       CLEAR     61  46  59 SW7       29.89S
CLINTONVILLE   PTCLDY    61  50  67 CALM      29.87S
OSHKOSH        CLEAR     61  52  72 S3        29.88F
$$

WIZ032>034-041-042-053>061-140600-
SOUTHWEST WISCONSIN

CITY           SKY/WX    TMP DP  RH WIND       PRES   REMARKS
LA CROSSE      MOCLDY    64  59  83 SE6       29.89F
SPARTA         MOCLDY    57  55  91 CALM      29.91S
VIROQUA        FAIR      60  54  79 SW3       29.92S
BOSCOBEL       PTCLDY    59  56  89 CALM      29.91F
PRAIRIE DU CHI PTCLDY    62  57  86 CALM      29.90F
PLATTEVILLE    FAIR      64  56  75 SE5       29.93S
$$

WIZ056-057-062-063-064-067-068-140600-
SOUTH CENTRAL WISCONSIN

CITY           SKY/WX    TMP DP  RH WIND       PRES   REMARKS
BARABOO/DELLS  PTCLDY    57  54  91 CALM      29.91S
LONE ROCK      CLEAR     60  55  83 CALM      29.91F
WATERTOWN      CLEAR     59  55  88 CALM      29.90F
MADISON        PTCLDY    60  57  89 CALM      29.91S
MIDDLETON      FAIR      58  58 100 CALM      29.92S
MONROE         CLEAR     68  50  52 NW6       29.93R
JANESVILLE     CLEAR     63  52  67 CALM      29.92S
$$

WIZ051-052-058>065-066-070>072-140600-
SOUTHEAST WISCONSIN

CITY           SKY/WX    TMP DP  RH WIND       PRES   REMARKS
MILWAUKEE      MOCLDY    70  51  51 NW5       29.90S
WAUKESHA       PTCLDY    63  54  72 CALM      29.92S
MILWAUKEE/TIMM MOCLDY    66  48  52 NW3       29.91S
RACINE         PTCLDY    67  59  75 W5        29.91S
BURLINGTON     CLEAR     60  59  96 CALM      29.92S
KENOSHA        PTCLDY    64  61  90 CALM      29.91S
FOND DU LAC    CLEAR     57  53  86 SW5       29.89F
SHEBOYGAN      CLEAR     56  53  90 SW3       29.89S
WEST BEND      CLEAR     55  52  88 CALM      29.90S
JUNEAU         CLEAR     60  40  47 CALM      29.91F
$$

LSZ147-162-140600-
LAKE SUPERIOR

STATION/POSITION TIME  TEMP    WIND        PRES    WAVE
                       AIR SEA DIR/SP/G            HT/PER
                 (UTC) (F)     (DEG/KT/KT) (MB)    (FT/S)
W MID LAKE BUOY  0450   45 38  240/  8/  8 1009.7S   1/ 3
PORT WING        0400   57     280/  5/  6 1011.5S
SAXON HARBOR     0440             CALM     1011.2R
$$

LMZ867-665-643>646-140600-
LAKE MICHIGAN

STATION/POSITION TIME  TEMP    WIND        PRES    WAVE
                       AIR SEA DIR/SP/G            HT/PER
                 (UTC) (F)     (DEG/KT/KT) (MB)    (FT/S)
N MID LAKE BUOY  0450   61 58  210/ 12/ 14 1009.8F   1/ 2
NORTHPORT PIER   0400   61     180/  4/  8 1010.8S
ALGOMA LAKESHORE 0450             CALM       N/A
KEWAUNEE LAKESHO 0400   63     300/  3/  4 1012.2F
SHEBOYGAN LAKESH 0500   68     270/  5/  6 1011.7F
PORT WASHINGTON  0440   66     290/  5/  6 1012.9S
MILWAUKEE LAKESH 0400   72     320/  6/  8   N/A
S MID LAKE BUOY  0450   67 64  320/  4/  4 1011.9S   1
KENOSHA   LAKESH 0500   71     320/  5/  6   N/A
$$

TC  - TEMPERATURE IN CELSIUS
VSB - VISIBILITY IN STATUTE MILES
WCI - WIND CHILL INDEX
HX  - HEAT INDEX



USA.gov is the U.S. government's official web portal to all federal, state and local government web resources and services.